Regional Weather Roundup
Issued by NWS

Home | Current Version | Previous Version | Text Only | Print | Product List | Glossary On
Versions: 1 2 3 4 5 6 7 8 9 10 11 12 13 14 15 16 17 18 19 20 21 22 23 24 25 26 27 28 29 30 31 32 33 34 35 36 37 38 39 40 41 42 43 44 45 46 47 48 49 50
000
ASUS43 KMPX 251310
RWRMN
WEATHER ROUNDUP FOR MINNESOTA
NATIONAL WEATHER SERVICE TWIN CITIES/CHANHASSEN MN
800 AM CDT MON MAY 25 2015


NOTE: "FAIR" INDICATES FEW OR NO CLOUDS BELOW 12,000 FEET WITH NO
SIGNIFICANT WEATHER AND/OR OBSTRUCTIONS TO VISIBILITY. N/A MEANS
CURRENT SKY AND/OR WEATHER CONDITIONS ARE NOT AVAILABLE.

MNZ060>063-068>070-251400-
   Twin Cities Metro

CITY           SKY/WX    TMP DP  RH WIND       PRES   REMARKS
TWIN CITIES    CLOUDY    59  59 100 SE6       29.66R FOG
ST PAUL        CLOUDY    59  59 100 SE5       29.67S FOG
CRYSTAL        FOG       57  57 100 SE3       29.65F VSB 3/4
BLAINE         FOG       61  59  94 SE5       29.66F VSB 1
LAKEVILLE      CLOUDY    61  61 100 SW3       29.67R
EDEN PRAIRIE   CLOUDY    60  59  96 SW8       29.65S FOG
SOUTH ST PAUL  FOG       59  58  97 CALM      29.66F VSB 1
LAKE ELMO      FOG       59  59 100 CALM      29.68S VSB 1
$$
MNZ001>005-007-008-013>017-022>024-027-028-251400-
   Northwest Minnesota

CITY           SKY/WX    TMP DP  RH WIND       PRES   REMARKS
BEMIDJI        LGT RAIN  55  55  97 E5        29.79F
HALLOCK        CLOUDY    57  52  82 CALM      29.79S
ROSEAU         CLOUDY    57  52  82 CALM      29.79S
WARROAD        CLOUDY    61  52  72 CALM      29.80S
THIEF RVR FALL CLOUDY    59  52  77 CALM      29.80S
CROOKSTON      CLOUDY    61  54  77 NW7         N/A
FOSSTON        DRIZZLE   55  52  88 CALM      29.80F
DETROIT LAKES  RAIN      55  54  94 NE10      29.77S
MOORHEAD       LGT RAIN  57  55  94 NE13      29.78S
PARK RAPIDS    LGT RAIN  57  54  89 NE10G20   29.74F FOG
MAHNOMEN       LGT RAIN  56  55  95 NE6       29.78S
$$
MNZ006-009>011-018-025>026-251400-
   North Central Minnesota

CITY           SKY/WX    TMP DP  RH WIND       PRES   REMARKS
BAUDETTE       CLOUDY    56  51  84 CALM      29.78F
FLAG ISLAND    CLOUDY    63  46  55 N9        29.78S
INTL FALLS     CLOUDY    57  52  83 CALM      29.79S
WASKISH        CLOUDY    57  55  94 CALM      29.80S
BIG FORK       RAIN      57  55  94 CALM      29.80F
LONGVILLE      LGT RAIN  57  55  94 N6        29.74F
GRAND RAPIDS   CLOUDY    57  54  88 N3        29.76F
CRANE LAKE     CLOUDY    55  54  94 CALM      29.83S
ORR            CLOUDY    55  52  88 CALM      29.79S
COOK           LGT RAIN  55  55 100 NE3       29.80F
WALKER         RAIN      56  54  94 NE6       29.76F
$$
MNZ012-019>021-037-251400-
   Northeast Minnesota

CITY           SKY/WX    TMP DP  RH WIND       PRES   REMARKS
DULUTH         LGT RAIN  59  56  89 E21G31    29.72F FOG
ELY            LGT RAIN  55  54  94 CALM      29.80F
HIBBING        LGT RAIN  58  54  86 E8        29.76F
EVELETH        LGT RAIN  57  55  94 NE7       29.78F
DULUTH HARBOR  DRIZZLE   46  45  93 E15       29.74R
TWO HARBORS    DRIZZLE   61  55  82 NE13G23   29.72F
GRAND MARAIS     N/A     44  42  93 NE5       29.81S
G MARAIS ARPRT LGT RAIN  54  52  94 NE7       29.84S
$$
MNZ029>031-032-039>041-046>048-054>057-064-251400-
   West Central Minnesota

CITY           SKY/WX    TMP DP  RH WIND       PRES   REMARKS
FERGUS FALLS   LGT RAIN  57  57 100 NE14G22   29.72S
WHEATON        LGT RAIN  55  54  94 N9        29.72F
MORRIS         DRIZZLE   59  57  94 N8        29.68S
ALEXANDRIA     CLOUDY    57  57 100 NE8       29.69F
ELBOW LAKE     LGT RAIN  56  56  99 NE7       29.70S
WADENA         RAIN      55  55 100 NE13G20   29.70S
GLENWOOD       CLOUDY    57  55  94 N7        29.68F
APPLETON       LGT RAIN  59  57  94 N5        29.69R
BENSON         DRIZZLE   57  55  94 N3        29.68S
ORTONVILLE     RAIN      57  55  94 N7        29.70R
MADISON        CLOUDY    57  57 100 W3        29.70R
WILLMAR        CLOUDY    57  57 100 NW5       29.68S FOG
$$
MNZ033>034-036-042>043-049>051-058-059-251400-
   Central Minnesota

CITY           SKY/WX    TMP DP  RH WIND       PRES   REMARKS
ST CLOUD       CLOUDY    57  56  96 E6        29.66S FOG
SAUK CENTRE    DRIZZLE   56  56  97 N3        29.67S
PAYNESVILLE    DRIZZLE   55  55 100 CALM      29.67S
AITKIN         HVY RAIN  57  52  82 NE7       29.69S
PINE RIVER     RAIN      55  55 100 N10G16    29.75F
BRAINERD       LGT RAIN  57  56  96 NE8       29.70S FOG
STAPLES        RAIN      55  55 100 NE5       29.70F
LONG PRAIRIE   DRIZZLE   55  54  94 N6        29.68F
LITTLE FALLS   DRIZZLE   55  54  94 CALM      29.67F
LITCHFIELD     CLOUDY    57  57 100 SW1       29.67S
BUFFALO        FOG       58  56  94 CALM      29.67R VSB 1
MAPLE LAKE     CLOUDY    58  58  98 CALM      29.67S FOG
$$
MNZ037-044-045-052-053-251400-
   East Central Minnesota

CITY           SKY/WX    TMP DP  RH WIND       PRES   REMARKS
PRINCETON      CLOUDY    57  57 100 E6        29.66F FOG
MORA           DRIZZLE   54  52  94 E6        29.69F
CAMBRIDGE      CLOUDY    59  52  77 E3        29.65F HAZE
RUSH CITY      CLOUDY    57  56  96 E3        29.69S
MOOSE LAKE     HVY RAIN  54  54 100 E9        29.69S
HINCKLEY       LGT RAIN  57  57 100 E7        29.69S
CLOQUET        DRIZZLE   57  55  94 E14G21    29.71S
MCGREGOR       CLOUDY    55  55 100 E5        29.72R
$$
MNZ071>073-080-081-089-090-097-098-251400-
   Southwest Minnesota

CITY           SKY/WX    TMP DP  RH WIND       PRES   REMARKS
MONTEVIDEO     CLOUDY    57  57 100 NW3       29.70R
GRANITE FALLS  CLOUDY    57  57 100 W10       29.71R
CANBY          CLOUDY    58  57  97 NW8       29.73R FOG
MARSHALL       CLOUDY    57  54  88 W8        29.71R
REDWOOD FALLS  CLOUDY    58  57  97 W10       29.70R
OLIVIA         CLOUDY    55  54  94 W6        29.68R
PIPESTONE      CLOUDY    57  55  94 SW5       29.74R
WINDOM         CLOUDY    57  57 100 SW9       29.73S
WORTHINGTON    CLOUDY    59  55  88 W8        29.75R
JACKSON        CLOUDY    59  59 100 W8        29.75R
TRACY          CLOUDY    58  58  99 W5        29.73R
SLAYTON        CLOUDY    57  57 100 W8        29.75R
$$
MNZ065>067-074>077-082>085-091>093-251400-
   South Central Minnesota

CITY           SKY/WX    TMP DP  RH WIND       PRES   REMARKS
MANKATO        CLOUDY    61  57  88 SW8       29.68F
NEW ULM        CLOUDY    57  57 100 W7        29.70R
ST JAMES       CLOUDY    61  61 100 SW10      29.73R
FAIRMONT       CLOUDY    61  55  82 W10       29.74R
GLENCOE        CLOUDY    59  60 100 SW7       29.66S
FARIBAULT      CLOUDY    61  61 100 SW6       29.68S FOG
OWATONNA       CLOUDY    63  61  94 SW10      29.70R FOG
WASECA         CLOUDY    59  57  94 SW12      29.71R
ALBERT LEA     CLOUDY    61  61 100 SW7       29.72R
$$
MNZ078>079-086>088-094>096-251400-
   Southeast Minnesota

CITY           SKY/WX    TMP DP  RH WIND       PRES   REMARKS
ROCHESTER      CLOUDY    62  60  93 SW14      29.72S FOG
RED WING       CLOUDY    61  59  94 SE5       29.67S FOG
STANTON        CLOUDY    63  60  91 SW7       29.66S
DODGE CENTER   CLOUDY    63  61  94 SW12      29.70S
WINONA         CLOUDY    61  61 100 CALM      29.70R FOG
AUSTIN         CLOUDY    63  61  94 SW10      29.72S FOG
PRESTON        LGT RAIN  61  60  95 SW12      29.73R
$$
ABBREVIATIONS USED IN REMARKS
   TC - TEMPERATURES IN CELSIUS
  WCI - WIND CHILL INDEX
   HX - HEAT INDEX
  VSB - VISIBILITY
$$


USA.gov is the U.S. government's official web portal to all federal, state and local government web resources and services.